Home   Weather   Eugene   Past weeks
Flag for USA

Past Weather in Eugene, Oregon, USA — Yesterday and Last 2 Weeks

Now
37 °F

Chilly.


Feels Like: 37 °F
Forecast: 50 / 38 °F
Wind: No wind

Location: Old Colton - MADIS Station

Current Time: Apr 2, 2020 at 3:43:16 am

Latest Report: Apr 2, 2020 at 2:55 am


Visibility: N/A

Pressure: 29.45 "Hg

Humidity: N/A

Dew Point: N/A

Location of EugeneLocation

Past Weather in Eugene — Graph

°F

Eugene Temperature Yesterday

Maximum temperature yesterday: 47 °F (at 4:35 pm)
Minimum temperature yesterday: 35 °F (at 1:45 am)
Average temperature yesterday: 40 °F

High & Low Weather Summary for the Past Weeks

 TemperatureHumidityPressure
High69 °F (Mar 22, 5:00 pm)84% (Mar 24, 6:30 pm)29.52 "Hg (Mar 24, 6:30 pm)
Low33 °F (Mar 26, 4:20 am)32% (Mar 22, 6:30 pm)29.09 "Hg (Mar 18, 6:35 am)
Average45 °F74%29.31 "Hg
* Reported Mar 18 2:05 am — Apr 2 2:25 am, Eugene. Weather by CustomWeather, © 2020

Note: Actual official high and low records may vary slightly from our data, if they occured in-between our weather recording intervals... More about our weather records

Eugene Weather History for the Previous 24 Hours

Scroll right to see more
 ConditionsComfort  
Time TempWeatherWind HumidityBarometerVisibility
2:25 am
Thu, Apr 2
38 °FChilly.No windN/A29.44 "HgN/A
1:45 am39 °FChilly.No windN/A29.44 "HgN/A
1:15 am39 °FChilly.No windN/A29.44 "HgN/A
12:15 am40 °FQuite cool.No windN/A29.43 "HgN/A
12:05 am40 °FQuite cool.No windN/A29.43 "HgN/A
11:15 pm
Wed, Apr 1
40 °FQuite cool.No windN/A29.42 "HgN/A
10:45 pm40 °FQuite cool.No windN/A29.41 "HgN/A
10:35 pm40 °FQuite cool.No windN/A29.41 "HgN/A
9:35 pm40 °FQuite cool.No windN/A29.39 "HgN/A
9:25 pm40 °FQuite cool.No windN/A29.39 "HgN/A
8:45 pm41 °FQuite cool.No windN/A29.38 "HgN/A
7:55 pm41 °FQuite cool.No windN/A29.36 "HgN/A
7:45 pm41 °FQuite cool.No windN/A29.36 "HgN/A
7:25 pm42 °FQuite cool.No wind76%29.35 "HgN/A
7:05 pm44 °FQuite cool.No wind74%29.34 "HgN/A
5:35 pm45 °FCool.No wind81%29.34 "HgN/A
4:45 pm47 °FCool.No wind80%29.33 "HgN/A
4:35 pm47 °FCool.No wind69%29.33 "HgN/A
3:55 pm43 °FQuite cool.No wind77%29.33 "HgN/A
3:05 pm44 °FQuite cool.1 mph66%29.33 "HgN/A
1:55 pm41 °FQuite cool.No wind67%29.33 "HgN/A
1:15 pm42 °FQuite cool.No wind77%29.33 "HgN/A
12:55 pm42 °FQuite cool.No wind78%29.33 "HgN/A
11:45 am41 °FQuite cool.No wind76%29.34 "HgN/A
11:15 am41 °FQuite cool.No wind79%29.35 "HgN/A
10:55 am41 °FQuite cool.No wind73%29.35 "HgN/A
10:35 am41 °FQuite cool.No wind65%29.35 "HgN/A
10:25 am41 °FQuite cool.No windN/A29.35 "HgN/A
9:25 am39 °FChilly.No wind76%29.35 "HgN/A
9:05 am39 °FChilly.No wind72%29.35 "HgN/A
8:35 am38 °FChilly.No wind70%29.35 "HgN/A
7:55 am37 °FChilly.No wind65%29.36 "HgN/A
6:25 am37 °FChilly.No windN/A29.36 "HgN/A
6:15 am36 °FChilly.No windN/A29.35 "HgN/A
5:55 am36 °FChilly.No windN/A29.36 "HgN/A
5:15 am37 °FChilly.No windN/A29.37 "HgN/A
4:35 am37 °FChilly.No windN/A29.38 "HgN/A
4:15 am37 °FChilly.No windN/A29.37 "HgN/A
3:55 am36 °FChilly.No windN/A29.38 "HgN/A
3:15 am36 °FChilly.No windN/A29.38 "HgN/A
Weather by CustomWeather, © 2020

See weather overview

Advertising